SCP
13 14 15 15 17 19 21 20 17 14 13 12 10 9 9 10 11 10 11 12 13 14 12 10 10 10 10 11 10 10 9 7 6 5 4 3 2 2 2 2 3 3 3
11 11 12 12 14 17 18 17 15 13 12 11 10 10 10 10 10 10 11 12 13 13 13 11 11 12 12 10 9 9 8 6 6 5 4 3 2 2 2 3 3 3 3
9 9 9 10 11 13 14 13 12 11 10 10 10 10 11 10 9 10 11 11 12 13 13 12 12 13 12 10 9 8 7 6 6 5 4 3 2 2 2 3 3 3 4
7 8 8 9 10 10 11 11 10 9 8 8 8 9 9 9 8 9 10 11 12 12 12 11 12 13 11 9 9 8 7 6 6 5 4 3 2 2 2 2 2 3 3
5 6 7 6 6 7 8 8 7 7 7 7 7 8 8 8 8 8 10 11 11 11 10 10 11 11 10 9 9 8 7 7 6 6 5 3 2 2 2 1 1 2 2
3 4 4 4 3 4 4 5 5 5 6 6 6 7 7 7 7 8 9 10 10 11 10 9 10 9 8 8 8 7 7 7 7 6 5 4 3 2 2 1 1 1 1
2 2 2 3 2 2 2 3 3 4 5 5 5 6 7 7 7 8 9 9 10 10 9 9 9 8 7 7 7 7 7 8 7 6 6 4 3 2 2 1 1 1 1
1 1 2 2 1 1 1 2 3 4 4 4 5 5 6 6 7 8 9 9 9 9 8 8 7 7 6 6 6 6 7 7 6 5 5 4 3 3 2 2 1 1 1
1 1 1 1 1 1 2 2 3 4 4 3 4 4 5 6 6 7 8 8 8 8 8 7 6 5 5 4 5 5 6 6 5 4 4 4 3 3 2 1 1 1 1
1 1 1 1 2 2 2 2 3 3 3 3 3 3 4 5 6 6 6 6 6 7 7 7 5 4 3 3 3 4 5 5 5 4 4 3 3 2 2 1 1 1 1
1 1 1 2 2 2 2 2 3 3 3 3 3 2 3 3 4 4 4 4 5 5 6 6 5 4 3 3 3 3 3 4 4 3 3 2 2 2 1 1 1 1 1
1 1 1 2 2 2 2 2 2 3 3 3 3 2 2 2 3 2 2 2 3 3 4 5 5 4 3 2 2 2 2 3 2 2 2 1 1 1 1 1 1 1 0
2 2 2 3 3 3 2 2 2 2 2 3 2 2 2 2 2 1 1 1 1 1 2 3 4 3 2 2 2 2 2 1 1 1 1 1 1 1 0 0 0 0 0
2 2 3 4 4 3 3 2 2 2 3 3 2 2 2 2 1 1 0 0 0 0 1 1 2 2 1 1 1 1 1 1 1 1 0 0 0 0 0 0 0 0 0
2 2 3 5 5 4 3 3 3 3 3 3 2 2 2 1 1 0 0 0 0 0 0 0 0 0 0 0 1 1 1 0 0 0 0 0 0 0 0 0 0 0 0
1 2 2 4 5 4 4 3 4 4 4 3 2 2 1 1 1 0 0 0 0 0 0 0 0 0 0 0 0 0 0 0 0 0 0 0 0 0 0 0 0 0 0
1 1 2 3 4 4 4 4 4 4 4 3 2 1 1 1 1 0 0 0 0 0 0 0 0 0 0 0 0 0 0 0 0 0 0 0 0 0 0 0 0 0 0
1 1 2 2 3 4 4 4 4 4 3 3 2 1 1 1 1 0 0 0 0 0 0 0 0 0 0 0 0 0 0 0 0 0 0 0 0 0 0 0 0 0 0
1 1 2 2 3 4 4 3 3 2 2 2 1 1 1 1 0 0 0 0 0 0 0 0 0 0 0 0 0 0 0 0 0 0 0 0 0 0 0 0 0 0 0
2 2 2 2 3 4 4 3 2 2 2 1 1 1 1 0 0 0 0 0 0 0 0 0 0 0 0 0 0 0 0 0 0 0 0 0 0 0 0 0 0 0 0
2 2 2 3 4 4 4 3 2 2 1 1 1 1 1 0 0 0 0 0 0 0 0 0 0 0 0 0 0 0 0 0 0 0 0 0 0 0 0 0 0 0 0
1 2 2 3 4 4 4 4 3 2 1 1 1 1 1 0 0 0 0 0 0 0 0 0 0 0 0 0 0 0 0 0 0 0 0 0 0 0 0 0 0 0 0
1 2 2 3 3 4 4 4 3 2 2 1 1 1 1 1 0 0 0 0 0 0 0 0 0 0 0 0 0 0 0 0 0 0 0 0 0 0 0 0 0 0 0
1 1 2 2 3 3 4 4 3 2 2 1 1 1 1 1 1 0 0 0 0 0 0 0 0 0 0 0 0 0 0 0 0 0 0 0 0 0 0 0 0 0 0
1 1 1 2 2 3 3 3 3 2 2 1 1 1 1 1 1 1 0 0 0 0 0 0 0 0 0 0 0 0 0 0 0 0 0 0 0 0 0 0 0 0 0
1 1 1 1 2 2 3 3 3 2 2 1 1 1 1 1 1 1 0 0 0 0 0 0 0 0 0 0 0 0 0 0 0 0 0 0 0 0 0 0 0 0 0
Wind_Speed
7 7 7 6 3 2 2 3 4 4 3 3 5 6 6 5 5 5 6 5 5 5 5 5 5 4 4 4 4 4 4 3 2 2 4 5 7 9 8 8 6 5 4
6 6 7 7 6 5 3 1 1 3 4 4 4 4 4 4 5 4 4 5 6 6 7 7 5 5 5 5 5 4 4 3 3 3 2 3 4 7 8 6 6 6 3
5 5 5 6 6 6 5 4 4 3 3 4 4 5 4 4 5 5 5 6 7 7 7 7 7 6 6 6 6 6 7 5 4 4 4 3 3 4 5 6 4 3 2
4 4 4 4 5 5 4 4 4 3 4 4 4 6 6 6 7 5 5 6 7 8 8 8 8 7 7 7 8 7 6 6 5 4 5 5 3 3 4 4 3 1 1
3 3 3 2 3 3 3 3 3 3 4 4 5 6 7 6 6 6 7 6 6 8 9 8 8 7 7 8 7 7 7 6 6 4 3 4 5 7 5 5 4 3 2
1 1 1 0 1 2 2 2 2 3 3 4 5 6 7 8 8 8 7 6 5 6 8 8 7 8 7 7 7 7 7 6 6 4 4 3 4 4 5 5 4 3 3
1 1 1 1 2 3 2 2 2 3 4 5 5 5 6 7 8 8 7 6 5 5 6 6 6 7 7 7 7 6 7 7 7 6 4 4 4 3 3 3 3 2 2
2 2 3 3 3 3 3 4 3 3 4 5 5 5 6 5 5 6 6 6 5 4 4 5 5 6 6 6 6 6 6 5 5 5 4 2 2 1 2 1 1 2 2
3 4 5 4 4 4 4 4 4 4 4 5 5 4 5 5 6 6 6 5 4 4 3 3 4 4 4 4 4 5 5 4 4 3 2 1 1 1 0 1 1 1 2
6 5 4 4 3 3 3 3 4 4 4 4 5 4 4 5 5 5 5 5 5 4 2 2 2 1 1 1 2 2 3 3 3 3 3 2 1 1 1 1 1 1 1
6 5 4 3 3 3 3 2 3 3 3 3 3 3 3 4 4 4 5 5 6 6 4 3 3 3 2 2 1 1 3 4 3 4 5 4 4 3 3 2 2 2 2
7 6 4 3 3 3 3 3 2 2 2 2 1 2 2 3 4 5 5 6 6 6 6 5 5 4 4 4 4 4 5 5 6 6 5 5 5 5 4 3 3 2 1
6 5 3 2 3 3 3 3 2 2 2 1 1 1 2 2 3 4 4 5 5 6 6 5 5 5 5 5 5 6 7 7 7 7 7 7 7 6 4 4 5 4 4
5 4 3 3 3 3 3 4 2 2 2 1 1 1 1 1 2 3 3 3 4 5 5 5 4 4 4 5 6 7 8 8 8 8 8 8 7 6 5 6 6 5 5
7 5 3 3 3 4 4 4 3 3 2 3 3 2 2 2 1 2 2 2 3 3 3 3 4 4 5 6 5 6 8 7 8 8 7 8 8 8 6 6 5 5 5
9 6 4 2 3 4 4 4 4 4 4 4 4 4 4 4 3 2 2 1 2 2 2 3 4 6 6 9 10 7 7 6 6 6 5 6 6 5 5 5 5 5 5
8 6 5 3 2 3 4 4 4 4 5 5 5 5 5 5 5 5 4 2 1 1 1 3 5 6 6 10 11 8 5 6 5 5 4 6 8 7 5 3 1 1 1
9 7 5 4 3 3 3 4 5 5 6 6 6 6 6 6 6 6 5 4 2 2 1 3 4 5 6 8 9 9 4 5 5 6 6 6 7 8 7 5 3 2 2
9 6 5 5 4 4 4 5 6 6 7 7 7 6 7 7 7 7 6 5 3 3 2 3 4 5 4 6 8 8 2 3 5 6 7 6 6 9 10 6 5 5 5
9 7 6 6 4 5 5 6 7 7 7 7 6 6 7 7 8 7 6 5 4 4 4 4 4 5 4 4 6 6 2 1 4 6 6 9 7 7 9 6 5 5 5
11 8 6 5 5 6 6 7 8 7 6 6 5 6 7 7 7 7 6 6 6 5 4 5 5 5 6 5 4 5 2 2 1 5 5 4 5 5 6 5 3 3 5
14 11 6 5 6 7 8 9 8 7 6 5 6 7 7 8 8 8 7 7 6 6 5 5 5 5 5 5 5 4 4 3 2 4 6 5 3 1 3 3 5 8 8
17 14 11 8 6 7 9 10 9 7 6 6 6 7 8 7 7 9 9 8 7 7 7 7 7 6 5 5 5 3 3 5 4 5 6 6 5 2 3 6 7 6 3
17 16 15 11 8 8 9 10 9 8 7 7 7 7 7 8 8 7 8 8 8 8 8 7 7 6 6 6 5 4 3 3 4 4 5 5 5 4 5 5 4 3 1
15 15 15 14 13 10 9 10 10 9 8 8 7 8 8 8 7 8 6 8 7 7 7 7 7 8 7 7 8 6 4 4 3 3 3 4 4 4 4 3 2 2 2
14 14 15 16 16 14 11 8 8 10 9 9 8 8 8 7 8 8 6 4 4 7 7 6 5 5 10 15 13 11 9 7 6 2 3 4 4 3 2 2 2 3 3
Wind_Direction
36 26 15 8 24 88 146 183 206 213 224 225 221 223 231 234 236 237 236 223 219 213 206 224 219 217 226 231 235 245 250 246 234 256 276 276 274 271 265 258 253 254 250
45 39 24 14 8 14 15 5 284 261 247 247 252 252 253 248 241 245 243 232 224 221 225 220 220 215 221 229 230 227 232 235 215 209 252 287 289 274 260 245 227 228 224
60 51 41 24 14 11 4 359 357 335 310 289 276 270 267 263 260 250 245 237 232 226 228 224 219 216 212 217 218 217 220 226 220 207 206 225 247 309 296 274 249 201 183
70 52 37 24 8 1 0 4 1 344 320 303 286 279 269 264 264 262 253 244 237 236 230 226 223 220 219 218 221 217 216 218 226 220 217 224 232 259 294 305 306 286 216
84 65 43 27 357 339 341 349 358 344 328 310 295 288 282 279 280 276 267 255 245 236 232 228 225 222 225 225 220 214 212 215 222 218 215 226 236 236 249 275 294 304 286
138 87 24 42 332 315 324 336 338 324 318 309 303 292 288 289 288 286 281 269 257 245 236 233 227 226 227 225 221 218 218 218 223 221 218 219 224 227 229 248 266 272 270
255 241 303 298 288 291 308 312 311 316 318 315 312 310 302 294 287 288 286 282 271 258 247 239 234 234 230 227 223 219 224 221 219 217 220 222 229 240 242 253 278 291 286
255 282 286 276 287 307 322 321 329 331 327 321 319 316 309 303 304 306 301 292 284 274 265 251 243 241 237 233 224 221 216 212 212 218 211 216 221 239 235 248 314 312 310
286 291 301 310 314 317 321 324 326 328 325 322 320 311 321 328 325 321 317 313 305 289 280 267 260 256 245 234 222 223 211 194 190 191 185 185 166 229 34 35 16 346 330
286 295 310 310 305 303 308 318 323 318 322 325 325 328 349 349 343 340 342 344 339 327 331 326 320 312 294 272 244 219 191 159 149 147 128 103 79 65 34 36 30 24 344
285 295 306 314 310 305 305 312 310 316 328 332 337 342 356 7 7 10 7 10 9 359 14 22 25 11 3 11 353 231 145 130 117 108 102 94 77 51 27 25 32 35 23
295 290 298 309 307 304 304 304 307 316 322 324 340 1 17 18 24 32 27 27 26 14 17 27 30 17 27 33 47 81 101 101 98 91 90 83 79 66 44 20 27 16 347
299 287 282 281 281 287 294 290 294 300 302 304 320 46 42 31 40 48 41 34 36 32 23 26 43 32 37 45 57 75 85 85 83 81 79 71 62 50 32 37 25 5 0
298 278 248 232 239 247 263 273 264 242 233 230 232 141 99 77 74 73 59 42 41 46 35 21 32 47 53 59 65 76 83 84 80 75 71 67 61 43 15 46 25 12 353
305 290 257 230 229 235 236 245 241 221 219 224 229 192 178 160 133 105 83 60 45 57 46 35 36 48 59 64 74 91 94 89 89 87 87 81 78 64 47 50 29 20 17
311 306 296 264 239 238 243 244 222 206 211 223 221 205 193 183 175 167 138 105 65 44 42 48 51 56 62 54 57 79 91 89 90 93 102 109 81 73 67 66 59 46 42
315 315 308 282 245 240 233 233 228 206 211 223 226 210 199 194 187 184 169 170 150 117 79 77 77 78 61 55 54 47 92 88 78 70 58 72 66 46 26 14 105 96 74
317 310 302 281 249 234 219 220 228 219 217 222 226 216 202 197 186 186 183 183 179 167 129 103 99 98 74 56 47 29 75 90 87 74 63 72 59 32 10 357 23 48 59
308 294 282 268 242 221 219 222 224 226 226 226 221 213 202 197 188 187 183 180 174 171 163 142 122 110 89 57 44 26 43 97 92 82 58 68 68 29 14 14 27 26 13
297 277 264 260 233 210 207 219 230 231 231 230 217 202 195 194 191 186 179 175 174 180 177 155 141 137 125 88 55 25 351 133 119 108 91 72 69 43 27 19 22 19 355
309 293 262 246 231 209 201 215 229 232 230 224 205 194 190 189 186 179 176 175 177 178 177 157 148 142 133 120 80 45 27 357 166 145 125 101 82 52 22 3 13 355 318
324 315 296 263 232 210 206 214 222 225 225 215 196 188 186 194 184 175 176 177 175 170 167 158 153 143 146 137 122 89 61 16 23 87 112 125 128 62 338 334 337 331 325
335 331 316 291 260 221 208 218 215 212 217 213 201 192 192 195 179 175 176 175 177 180 176 175 174 167 155 136 141 132 81 54 64 90 121 147 172 218 263 268 291 315 338
331 330 326 317 300 264 228 216 210 205 210 210 201 190 192 191 183 179 179 182 185 189 185 186 182 171 160 160 168 172 157 129 131 145 156 180 207 247 279 270 254 228 79
323 325 326 321 311 300 261 225 206 199 205 206 202 196 197 194 186 184 183 191 190 193 187 189 181 173 173 167 170 178 171 169 149 156 174 199 209 219 227 220 187 107 81
316 317 320 321 318 309 290 254 215 202 200 203 204 201 198 190 186 180 163 76 134 148 152 158 168 157 146 142 130 120 115 115 123 155 220 217 209 199 181 156 137 119 91